Regional Weather Roundup
Issued by NWS New Orleans/Baton Rouge, LA

Home | Current Version | Previous Version | Graphics & Text | Print | Product List | Glossary On
Versions: 1 2 3 4 5 6 7 8 9 10 11 12 13 14 15 16 17 18 19 20 21 22 23 24 25 26 27 28 29 30 31 32 33 34 35 36 37 38 39 40 41 42 43 44 45 46 47 48 49 50
850
ASUS44 KLIX 210710
RWRLIX
NEW ORLEANS REGIONAL WEATHER ROUNDUP
NATIONAL WEATHER SERVICE NEW ORLEANS LA
200 AM CDT TUE OCT 21 2014

NOTE: "FAIR" INDICATES FEW OR NO CLOUDS BELOW 12,000 FEET WITH NO
      SIGNIFICANT WEATHER AND/OR OBSTRUCTIONS TO VISIBILITY.
      SKY/WX - SKY CONDITION AND SIGNIFICANT WEATHER.
      TMP - AIR TEMPERATURE.     DP    - DEWPOINT TEMPERATURE.
      RH  - RELATIVE HUMIDITY.   PRES  - PRESSURE.
      HI  - HEAT INDEX.          WCI   - WIND CHILL INDEX.

*  THESE STATIONS ARE NOT NWS OR FAA STATIONS AND ARE NOT UNDER
   NWS QUALITY CONTROL.

LAZ038-040-048-061>063-065>067-069-210800-
SOUTHEAST LOUISIANA

CITY           SKY/WX    TMP DP  RH WIND       PRES   REMARKS
N.O. AUDUBON     N/A     64  56  75 MISG        N/A
N.O. INTL ARPT PTCLDY    63  55  75 CALM      30.00F
N.O. LAKEFRONT CLEAR     71  56  58 NE12      30.01S
N.O. DOWNTOWN*   N/A     68  50  52 NE7       30.01S
SLIDELL        CLEAR     52  49  89 CALM      30.01S
BATON ROUGE    CLEAR     57  53  86 NE5       30.02S
BOOTHVILLE     CLEAR     71  62  73 NE3       30.00S
BELLE CHASSE   CLEAR     56  53  90 CALM      30.00S
BOGALUSA*        N/A     51  48  89 CALM      30.04R
NEW ROADS*       N/A     55  54  95 CALM      30.02S
GONZALES*        N/A     56  56 100 CALM      30.00F
HAMMOND*       CLEAR     54  50  87 CALM      30.03S
HOUMA*         CLEAR     58  56  96 CALM      30.00S
PORT FOURCHON* SUNNY     70  63  78 NE5       30.03S

$$

MSZ070-080>082-210800-
SOUTHERN MISSISSIPPI

CITY           SKY/WX    TMP DP  RH WIND       PRES   REMARKS
MCCOMB         CLEAR     60  50  69 N5        30.03S
GULFPORT       CLEAR     55  52  89 CALM      30.01S
BILOXI         CLEAR     59  52  78 N2        30.01S
PASCAGOULA     CLEAR     49  48  97 CALM      30.01S

$$

COASTAL OBSERVATIONS
LAKE AND NEARSHORE STATIONS

STATION/POSITION TIME  TEMP    WIND        PRES    WAVE
                       AIR SEA DIR/SP/G            HT/PER
                 (UTC) (F)     (DEG/KT/KT) (MB)    (FT/S)
PASCAGOULA       0700   60     360/  6/  9 1015.6
WAVELAND YACHT   0700   65      20/  6/  7 1015.5
GRAND ISLE       0700   71 78   60/  6/  8 1016.3
SOUTHWEST PASS   0700   72 84              1015.8
NEW CANAL        0700   71 72   50/ 10/ 12 1016.2
SHELL BEACH      0700   70 69   50/  9/ 10 1015.7

OFFSHORE STATIONS

STATION/POSITION TIME  TEMP    WIND        PRES    WAVE
                       AIR SEA DIR/SP/G            HT/PER
                 (UTC) (F)     (DEG/KT/KT) (MB)    (FT/S)
64 S DAUPHIN ISL 0646   74 79   30/ 10/ 12 1016.0    1/ 5

$$




USA.gov is the U.S. government's official web portal to all federal, state and local government web resources and services.